Content
SEND FEEDBACK

Daily
Averages
Monthly
Summary
United States of America

SPIRIT FALLS, WISCONSIN


Home > North America > United States > Wisconsin
Elevation: 445 meters     Latitude: 45 27N     Longitude: 089 59W

WEATHER
 
SELECT A DAY
Number of Records: 244,989;   Date Range: 10/5/04 - 8/30/14
 
SHARE

PRINT THIS DATA

[ ← Previous Day ]
WEATHER ALMANAC - 31 JANUARY, 2013
[ Next Day → ]
[ °F ]   °C
Weather ElementAverageHighLow
Temperature-14.4 °C-12 °C (12:35 am)-18 °C (10:15 pm)
Dewpoint-18.2 °C-15 °C (12:35 am)-22 °C (11:55 pm)
Humidity74.1 %85 % (5:55 am)62 % (10:55 am)
Barometer1007.1 hPa1015.6 hPa (11:35 pm)999 hPa (12:35 am)
Wind Speed16.9 km/h25.9 km/h (11:35 am)
Wind Gust37 km/h (11:35 am)
Weather ElementAverage
Visibility14 km
Wind DirectionWNW (288.3 °)

Weather ElementTotal
Precipitation0.76 mm
Heating Degree Days33.3 (Base 18.3)
Averaged from 71 records on 31 January, 2013
WEATHER CONDITIONS BREAKOUT
WIND DIRECTION BREAKOUT
WEATHER BY HOUR - 31 JANUARY, 2013
[ °F ]   °C
Local TimeTemperatureDewpointHumidityBarometerVisibilityWind DirectionWind SpeedGust SpeedPrecipitationEventsConditions
12:35 AM-12 °C-15 °C79 %999 hPa16.1 kmWest (280°)18.5 km/hOvercast
12:55 AM-12 °C-15 °C79 %999 hPa16.1 kmWNW (290°)18.5 km/hSnowLight Snow
1:15 AM-12 °C-15 °C79 %999.3 hPa16.1 kmWest (280°)16.7 km/h25.9 km/hOvercast
1:35 AM-12 °C-15 °C79 %999.7 hPa16.1 kmWNW (290°)24.1 km/h31.5 km/hOvercast
1:55 AM-13 °C-16 °C79 %1000 hPa16.1 kmWest (280°)16.7 km/h27.8 km/hOvercast
2:15 AM-13 °C-16 °C79 %1000.3 hPa16.1 kmWest (280°)18.5 km/h27.8 km/h0.25 mmOvercast
2:35 AM-13 °C-16 °C79 %1000.3 hPa16.1 kmWNW (290°)13 km/h0.25 mmOvercast
2:55 AM-13 °C-16 °C79 %1000.7 hPa16.1 kmWest (280°)22.2 km/h29.6 km/h0.25 mmOvercast
3:15 AM-13 °C-16 °C79 %1000.7 hPa16.1 kmWest (280°)18.5 km/h31.5 km/hOvercast
3:35 AM-13 °C-16 °C79 %1000.7 hPa16.1 kmWest (280°)18.5 km/h29.6 km/hOvercast
3:55 AM-13 °C-16 °C79 %1000.7 hPa16.1 kmWNW (290°)20.4 km/h35.2 km/hOvercast
4:15 AM-13 °C-17 °C73 %1001 hPa16.1 kmWest (280°)20.4 km/hOvercast
4:35 AM-13 °C-17 °C73 %1001.4 hPa16.1 kmWest (280°)14.8 km/hOvercast
4:55 AM-14 °C-17 °C79 %1001.4 hPa16.1 kmWest (270°)14.8 km/hOvercast
5:15 AM-14 °C-17 °C79 %1001.4 hPa16.1 kmWest (270°)18.5 km/h25.9 km/hOvercast
5:35 AM-14 °C-17 °C79 %1001.7 hPa16.1 kmWest (280°)14.8 km/h31.5 km/hOvercast
5:55 AM-15 °C-17 °C85 %1002 hPa16.1 kmWest (280°)14.8 km/hOvercast
6:15 AM-15 °C-18 °C78 %1002 hPa16.1 kmWest (280°)22.2 km/h27.8 km/hOvercast
6:35 AM-16 °C-18 °C85 %1002.4 hPa16.1 kmWNW (290°)14.8 km/h27.8 km/hScattered Clouds
6:55 AM-16 °C-19 °C78 %1002.7 hPa16.1 kmWNW (290°)13 km/hClear
7:15 AM-16 °C-19 °C78 %1003 hPa16.1 kmWest (280°)16.7 km/hClear
7:35 AM-17 °C-20 °C78 %1003.4 hPa16.1 kmWest (270°)13 km/hClear
7:55 AM-17 °C-20 °C78 %1003.7 hPa16.1 kmWest (270°)14.8 km/hClear
8:15 AM-17 °C-20 °C78 %1003.7 hPa16.1 kmWest (270°)16.7 km/hClear
8:35 AM-16 °C-19 °C78 %1004.1 hPa16.1 kmWest (280°)16.7 km/hClear
8:55 AM-15 °C-18 °C78 %1004.4 hPa16.1 kmWest (280°)22.2 km/h29.6 km/hClear
9:15 AM-15 °C-18 °C78 %1004.7 hPa16.1 kmWest (270°)22.2 km/h29.6 km/hClear
9:35 AM-14 °C-18 °C72 %1005.1 hPa16.1 kmWNW (290°)14.8 km/h31.5 km/hClear
9:55 AM-14 °C-18 °C72 %1005.4 hPa16.1 kmWNW (290°)16.7 km/h31.5 km/hClear
10:15 AM-13 °C-18 °C67 %1005.8 hPa16.1 kmWNW (290°)24.1 km/h31.5 km/hClear
10:35 AM-13 °C-18 °C67 %1005.8 hPa16.1 kmWNW (300°)20.4 km/hScattered Clouds
10:55 AM-12 °C-18 °C62 %1006.1 hPa16.1 kmWNW (290°)20.4 km/h33.3 km/hMostly Cloudy
11:15 AM-13 °C-18 °C67 %1006.1 hPa16.1 kmNW (320°)20.4 km/h33.3 km/hScattered Clouds
11:35 AM-12 °C-18 °C62 %1006.1 hPa16.1 kmWNW (290°)25.9 km/h37 km/hScattered Clouds
11:55 AM-12 °C-18 °C62 %1006.1 hPa16.1 kmNW (310°)22.2 km/h31.5 km/hMostly Cloudy
12:15 PM-12 °C-17 °C67 %1006.4 hPa8 kmWNW (290°)14.8 km/hHaze
12:35 PM-12 °C-17 °C67 %1006.8 hPa11.3 kmWNW (300°)20.4 km/h31.5 km/hOvercast
12:55 PM-12 °C-17 °C67 %1006.8 hPa4.8 kmWest (280°)24.1 km/h31.5 km/hHaze
1:15 PM-12 °C-17 °C67 %1006.8 hPa4.8 kmWNW (300°)22.2 km/h31.5 km/hHaze
1:35 PM-12 °C-17 °C67 %1007.1 hPa11.3 kmWNW (290°)18.5 km/h31.5 km/hOvercast
1:55 PM-12 °C-18 °C62 %1007.5 hPa11.3 kmNW (310°)20.4 km/h29.6 km/hOvercast
2:15 PM-12 °C-17 °C67 %1007.8 hPa4.8 kmNW (310°)20.4 km/h33.3 km/hHaze
2:35 PM-12 °C-18 °C62 %1007.8 hPa11.3 kmWNW (290°)18.5 km/h27.8 km/hOvercast
2:55 PM-12 °C-18 °C62 %1008.1 hPa11.3 kmWNW (300°)18.5 km/h35.2 km/hOvercast
3:15 PM-13 °C-17 °C73 %1008.8 hPa4.8 kmWNW (300°)18.5 km/h33.3 km/hHaze
3:35 PM-13 °C-18 °C67 %1009.1 hPa11.3 kmWNW (290°)18.5 km/h29.6 km/hOvercast
3:55 PM-13 °C-17 °C73 %1009.5 hPa4.8 kmNW (320°)11.1 km/hSnowLight Snow
4:15 PM-14 °C-18 °C72 %1010.2 hPa11.3 kmWNW (300°)18.5 km/hMostly Cloudy
4:35 PM-14 °C-19 °C67 %1010.5 hPa11.3 kmNW (310°)20.4 km/h25.9 km/hMostly Cloudy
4:55 PM-15 °C-20 °C66 %1010.8 hPa16.1 kmWNW (300°)18.5 km/hMostly Cloudy
5:15 PM-15 °C-20 °C66 %1011.2 hPa11.3 kmWNW (290°)9.3 km/hOvercast
5:35 PM-15 °C-19 °C72 %1011.5 hPa16.1 kmWNW (290°)13 km/hMostly Cloudy
5:55 PM-16 °C-19 °C78 %1011.9 hPa11.3 kmWNW (300°)11.1 km/hMostly Cloudy
6:15 PM-16 °C-19 °C78 %1012.2 hPa11.3 kmWNW (290°)11.1 km/hOvercast
6:35 PM-16 °C-19 °C78 %1012.5 hPa6.4 kmWNW (290°)9.3 km/hHaze
6:55 PM-16 °C-18 °C85 %1012.9 hPa11.3 kmWNW (290°)13 km/hMostly Cloudy
7:15 PM-16 °C-19 °C78 %1013.2 hPa11.3 kmWest (280°)14.8 km/h27.8 km/hMostly Cloudy
7:35 PM-16 °C-20 °C72 %1013.2 hPa11.3 kmWest (280°)13 km/hMostly Cloudy
7:55 PM-16 °C-20 °C72 %1013.5 hPa11.3 kmWNW (290°)16.7 km/hOvercast
8:15 PM-17 °C-20 °C78 %1013.5 hPa11.3 kmWest (280°)13 km/hScattered Clouds
8:35 PM-17 °C-20 °C78 %1013.9 hPa16.1 kmWNW (290°)14.8 km/hClear
8:55 PM-17 °C-20 °C78 %1014.2 hPa16.1 kmWNW (290°)16.7 km/hScattered Clouds
9:15 PM-17 °C-20 °C78 %1014.6 hPa16.1 kmWNW (290°)13 km/hScattered Clouds
9:35 PM-17 °C-21 °C72 %1014.6 hPa16.1 kmWNW (290°)14.8 km/hScattered Clouds
9:55 PM-17 °C-21 °C72 %1014.9 hPa16.1 kmWNW (290°)13 km/hScattered Clouds
10:15 PM-18 °C-21 °C78 %1014.9 hPa16.1 kmWest (280°)13 km/hScattered Clouds
10:35 PM-18 °C-21 °C78 %1014.9 hPa16.1 kmWNW (290°)14.8 km/hMostly Cloudy
10:55 PM-18 °C-21 °C78 %1015.2 hPa16.1 kmWNW (290°)13 km/h25.9 km/hScattered Clouds
11:15 PM-18 °C-21 °C78 %1015.2 hPa16.1 kmWNW (290°)11.1 km/hScattered Clouds
11:35 PM-18 °C-21 °C78 %1015.6 hPa16.1 kmWest (280°)11.1 km/hScattered Clouds
11:55 PM-18 °C-22 °C72 %1015.6 hPa16.1 kmWest (280°)11.1 km/hClear
Hourly data recorded from KTKV, located 0 kilometers away from Spirit Falls, Wisconsin







STORIES FROM OUR PARTNERS